Location: East Guldeford
(50.9500°N, 0.7500°E)
Time: 07:33:17
(UTC+00:00)

Cosmos 1733 Rocket - Pass Details

Date: 12 May 2021
Orbit: 603 x 628 km, 82.5° (Epoch: 16 June)

Event Time Altitude Azimuth Distance (km) Brightness Sun altitude
Rises 21:35:50 0° 356° (N) 2,875 7.6 -14.4°
Reaches altitude 10° 21:38:15 10° 7° (N) 1,964 6.4 -14.6°
Maximum altitude 21:42:09 32° 71° (ENE) 1,056 4.1 -14.9°
Enters shadow 21:44:08 22° 116° (ESE) 1,350 4.3 -15.1°
